Home   Weather   Sunderland   Past weeks

Flag for United Kingdom Past Weather in Sunderland, England, United Kingdom — Yesterday and Last 2 Weeks

Now
39 °F

Fog.


Feels Like: 39 °F
Forecast: 34 / 43 °F
Wind: No wind

Location: Newcastle

Current Time: Dec 3, 2016 at 2:42:38 am

Latest Report: Dec 3, 2016 at 2:20 am


Visibility: 0 mi

Pressure: 30.33 "Hg

Humidity: 100%

Dew Point: 39 °F

Location of SunderlandLocation

Past Weather in Sunderland — Graph

°F

Sunderland Temperature Yesterday

Maximum temperature yesterday: 46 °F (at 12:20 pm)
Minimum temperature yesterday: 36 °F (at 1:50 am)
Average temperature yesterday: 42 °F

High & Low Weather Summary for the Past Weeks

 TemperatureHumidityPressure
High48 °F (Dec 1, 10:50 am)100% (Nov 18, 1:20 am)30.51 "Hg (Nov 18, 1:20 am)
Low25 °F (Nov 20, 1:50 am)71% (Nov 25, 1:50 pm)29.03 "Hg (Nov 18, 3:20 am)
Average38 °F93%30.01 "Hg
* Reported Nov 18 1:20 am — Dec 3 1:20 am, Sunderland, Weather by CustomWeather, © 2016

Note: Actual official high and low records may vary slightly from our data, if they occured in-between our weather recording intervals... More about our weather records

Advertising

Sunderland Weather History for the Previous 24 Hours

Scroll right to see more
 ConditionsComfort  
Time TempWeatherWind HumidityBarometerVisibility
1:20 am
Sat, Dec 3
41 °FFog.No wind100%30.33 "Hg1 mi
12:50 am41 °FFog.No wind100%30.33 "Hg1 mi
11:50 pm
Fri, Dec 2
41 °FFog.No wind100%30.33 "Hg1 mi
11:20 pm41 °FFog.No wind100%30.33 "Hg1 mi
10:50 pm43 °FFog.No wind100%30.33 "Hg1 mi
10:20 pm41 °FFog.1 mph100%30.33 "Hg1 mi
9:50 pm43 °FFog.3 mph100%30.33 "Hg1 mi
9:20 pm43 °FFog.1 mph100%30.33 "Hg1 mi
8:50 pm43 °FFog.1 mph100%30.33 "Hg1 mi
7:50 pm43 °FFog.2 mph100%30.33 "HgN/A
6:50 pm43 °FLight rain. Passing clouds.3 mph100%30.33 "Hg4 mi
5:50 pm43 °FLight rain. Passing clouds.2 mph100%30.33 "Hg3 mi
5:20 pm43 °FLight rain. Passing clouds.3 mph100%30.33 "Hg3 mi
4:50 pm45 °FLight rain. Passing clouds.1 mph100%30.33 "Hg4 mi
4:20 pm45 °FScattered showers. Passing clouds.1 mph100%30.33 "Hg4 mi
3:50 pm45 °FScattered showers. Passing clouds.3 mph93%30.33 "Hg4 mi
3:20 pm45 °FScattered clouds.2 mph93%30.33 "HgN/A
2:50 pm45 °FPartly sunny.1 mph93%30.33 "HgN/A
1:50 pm46 °FScattered clouds.5 mph87%30.33 "HgN/A
12:50 pm46 °FScattered clouds.5 mph87%30.33 "HgN/A
12:20 pm46 °FScattered clouds.5 mph87%30.33 "HgN/A
11:50 am45 °FScattered clouds.5 mph93%30.33 "HgN/A
11:20 am45 °FScattered clouds.3 mph93%30.33 "HgN/A
10:50 am45 °FScattered clouds.3 mph93%30.33 "HgN/A
10:20 am43 °FScattered clouds.1 mph93%30.33 "HgN/A
9:20 am41 °FScattered clouds.3 mph100%30.33 "HgN/A
8:50 am41 °FScattered clouds.3 mph100%30.33 "HgN/A
8:20 am41 °FPartly sunny.3 mph93%30.33 "HgN/A
7:50 am41 °FPassing clouds.2 mph93%30.33 "HgN/A
7:20 am41 °FPassing clouds.3 mph93%30.33 "HgN/A
6:50 am41 °FPassing clouds.3 mph93%30.30 "HgN/A
6:20 am39 °FPassing clouds.3 mph100%30.30 "HgN/A
5:50 am39 °FPassing clouds.3 mph100%30.30 "HgN/A
5:20 am39 °FPassing clouds.3 mph100%30.30 "HgN/A
4:50 am39 °FPassing clouds.5 mph100%30.30 "HgN/A
4:20 am39 °FPassing clouds.3 mph100%30.30 "HgN/A
3:50 am37 °FClear.5 mph100%30.30 "Hg10 mi
3:20 am37 °FClear.3 mph100%30.30 "Hg10 mi
2:50 am37 °FClear.5 mph100%30.33 "Hg10 mi
2:20 am37 °FClear.5 mph100%30.33 "Hg10 mi
Weather by CustomWeather, © 2016

See weather overviewHow to use our weather pages